This is the latest recevied weather packets stored in our database for station/object N3WPH. If no packets are shown the sender has not sent any weather packets the latest 10 day(s).
| Time | Temp. | Humidity | Pressure | Rain* | Wind** | Luminosity | Snow |
|---|---|---|---|---|---|---|---|
| 1778000329 | 25.56° C | 40% | 1008.1 hPa | 0 mm | - | 683 W/m² | - |
| 1778000025 | 25.56° C | 43% | 1008.2 hPa | 0 mm | - | 788 W/m² | - |
| 1777999720 | 25.56° C | 41% | 1008.1 hPa | 0 mm | - | 677 W/m² | - |
| 1777999417 | 25.56° C | 41% | 1008.3 hPa | 0 mm | - | 729 W/m² | - |
| 1777999116 | 25.56° C | 44% | 1008.6 hPa | 0 mm | - | 788 W/m² | - |
| 1777998814 | 25.56° C | 42% | 1008.6 hPa | 0 mm | - | 733 W/m² | - |
| 1777998513 | 25.56° C | 43% | 1008.5 hPa | 0 mm | - | 769 W/m² | - |
| 1777998208 | 25° C | 41% | 1008.5 hPa | 0 mm | - | 769 W/m² | - |
| 1777997905 | 25° C | 42% | 1008.6 hPa | 0 mm | - | 423 W/m² | - |
| 1777997603 | 25° C | 43% | 1008.5 hPa | 0 mm | - | 201 W/m² | - |
| 1777997300 | 24.44° C | 44% | 1008.7 hPa | 0 mm | - | 754 W/m² | - |
| 1777996998 | 24.44° C | 44% | 1008.5 hPa | 0 mm | - | 242 W/m² | - |
| 1777996694 | 25° C | 42% | 1008.7 hPa | 0 mm | - | 308 W/m² | - |
| 1777996389 | 25° C | 45% | 1008.9 hPa | 0 mm | - | 159 W/m² | - |
| 1777996086 | 25.56° C | 41% | 1008.8 hPa | 0 mm | - | 765 W/m² | - |
| 1777995783 | 25° C | 44% | 1008.9 hPa | 0 mm | - | 733 W/m² | - |
| 1777995479 | 25° C | 45% | 1008.8 hPa | 0 mm | - | 726 W/m² | - |
| 1777995176 | 25° C | 43% | 1009 hPa | 0 mm | - | 711 W/m² | - |
| 1777994874 | 24.44° C | 45% | 1009.1 hPa | 0 mm | - | 707 W/m² | - |
| 1777994570 | 24.44° C | 45% | 1009 hPa | 0 mm | - | 161 W/m² | - |
| 1777994264 | 25° C | 44% | 1009.1 hPa | 0 mm | - | 689 W/m² | - |
| 1777993962 | 24.44° C | 45% | 1008.9 hPa | 0 mm | - | 679 W/m² | - |
| 1777993659 | 24.44° C | 45% | 1009 hPa | 0 mm | - | 671 W/m² | - |
| 1777993356 | 24.44° C | 44% | 1009.3 hPa | 0 mm | - | 664 W/m² | - |
| 1777993050 | 24.44° C | 48% | 1009 hPa | 0 mm | - | 655 W/m² | - |
* Rain latest hour (hover to see other rain measurements)
** Current wind speed in m/s (hover to see current wind gust speed)